WetterOnline ( https://www.wetteronline.de )

Wetter aktuell Älvdalen

Aktuelles Wetter: Malung A (304m)

6-stündlich | Neueste Meldungen
Ortszeit Temperatur Wetter
Sa, 26.09. 2:00 7.3° C leichter Regen
Fr, 25.09. 20:00 10.2° C bewölkt
Fr, 25.09. 14:00 12.3° C fast wolkenlos
Fr, 25.09. 8:00 9.4° C bewölkt
Fr, 25.09. 2:00 9.4° C bewölkt
Do, 24.09. 20:00 10.9° C wolkenlos
Do, 24.09. 14:00 13.4° C leichte Schauer
Do, 24.09. 8:00 11.3° C leichte Schauer
Ortszeit Temperatur Wetter
Sa, 26.09. 7:00 5.9° C Regen
Sa, 26.09. 6:00 5.5° C starker Regen
Sa, 26.09. 5:00 5.6° C Regen
Sa, 26.09. 4:00 5.5° C Regen
Sa, 26.09. 3:00 6.2° C leichter Regen
Sa, 26.09. 2:00 7.3° C leichter Regen
Ortszeit Relative Feuchte Sichtweite
Sa, 26.09. 2:00 67% 50 km
Fr, 25.09. 20:00 64% 50 km
Fr, 25.09. 14:00 58% 45 km
Fr, 25.09. 8:00 77% 50 km
Fr, 25.09. 2:00 71% 45 km
Do, 24.09. 20:00 65% 50 km
Do, 24.09. 14:00 83% 8 km
Do, 24.09. 8:00 86% 9 km
Ortszeit Relative Feuchte Sichtweite
Sa, 26.09. 7:00 86% 21 km
Sa, 26.09. 6:00 87% 6 km
Sa, 26.09. 5:00 85% 12 km
Sa, 26.09. 4:00 84% 10 km
Sa, 26.09. 3:00 77% 45 km
Sa, 26.09. 2:00 67% 50 km
Ortszeit Niederschlagsmenge Niederschlagsart
Sa, 26.09. 2:00 keine Meldung -
Fr, 25.09. 20:00 0.0 l/m2 in 12 Std. -
Fr, 25.09. 14:00 0.0 l/m2 in 1 Std. -
Fr, 25.09. 8:00 0.0 l/m2 in 12 Std. -
Fr, 25.09. 2:00 0.0 l/m2 in 1 Std. -
Do, 24.09. 20:00 1 l/m2 in 12 Std. Regenschauer
Do, 24.09. 14:00 0.5 l/m2 in 1 Std. Regenschauer
Do, 24.09. 8:00 0.8 l/m2 in 12 Std. Schauer
Ortszeit Niederschlagsmenge Niederschlagsart
Sa, 26.09. 7:00 1.9 l/m2 in 1 Std. Regen
Sa, 26.09. 6:00 4.7 l/m2 in 1 Std. Regen
Sa, 26.09. 5:00 3.0 l/m2 in 1 Std. Regen
Sa, 26.09. 4:00 2.0 l/m2 in 1 Std. Regen
Sa, 26.09. 3:00 0.5 l/m2 in 1 Std. Regen
Sa, 26.09. 2:00 0.3 l/m2 in 1 Std. Regen
Ortszeit Stärke Spitze Richtung
km/h Bft. km/h Grad Sektor
Sa, 26.09. 2:00 15 3 - 40° NO
Fr, 25.09. 20:00 11 2 18 40° NO
Fr, 25.09. 14:00 7 2 14 10° N
Fr, 25.09. 8:00 7 2 - 210° SW
Fr, 25.09. 2:00 11 2 29 200° S
Do, 24.09. 20:00 11 2 32 180° S
Do, 24.09. 14:00 22 4 36 160° S
Do, 24.09. 8:00 9 2 - 150° SO
Ortszeit Stärke Spitze Richtung
km/h Bft. km/h Grad Sektor
Sa, 26.09. 7:00 11 2 29 10° N
Sa, 26.09. 6:00 13 3 28 - -
Sa, 26.09. 5:00 11 2 29 10° N
Sa, 26.09. 4:00 14 3 29 10° N
Sa, 26.09. 3:00 11 2 29 10° N
Sa, 26.09. 2:00 15 3 30 40° NO
Ortszeit Untergrenze Bedeckung Gattung
total tief tief mittel hoch
Sa, 26.09. 2:00 1350 m 8/8 8/8 - - -
Fr, 25.09. 20:00 1410 m 7/8 7/8 - - -
Fr, 25.09. 14:00 960 m 1/8 1/8 - - -
Fr, 25.09. 8:00 420 m 7/8 6/8 - - -
Fr, 25.09. 2:00 780 m 7/8 7/8 - - -
Do, 24.09. 20:00 - 0/8 0/8 - - -
Do, 24.09. 14:00 750 m 8/8 8/8 - - -
Do, 24.09. 8:00 270 m 8/8 8/8 - - -
Ortszeit Bedeckungsgrad in Achtel und Wolkenuntergrenze
Sa, 26.09. 7:00 8(300m)
Sa, 26.09. 6:00 8(300m)
Sa, 26.09. 5:00 8(420m)
Sa, 26.09. 4:00 8(1020m)
Sa, 26.09. 3:00 8(1050m)
Sa, 26.09. 2:00 8(1350m)
Ortszeit Luftdruck NN (hPa) Tendenz (hPa in 3 Std.)
Sa, 26.09. 2:00 1007 - 0,8
Fr, 25.09. 20:00 1007 + 0,1
Fr, 25.09. 14:00 1007 + 1,3
Fr, 25.09. 8:00 1003 + 2,0
Fr, 25.09. 2:00 1000 + 1,1
Do, 24.09. 20:00 997 + 1,8
Do, 24.09. 14:00 994 - 0,7
Do, 24.09. 8:00 997 - 1,0
Ortszeit Luftdruck NN (hPa) Tendenz (hPa in 3 Std.)
Sa, 26.09. 7:00 1005 - 0,3
Sa, 26.09. 6:00 1005 - 0,7
Sa, 26.09. 5:00 1005 - 1,6
Sa, 26.09. 4:00 1005 - 1,7
Sa, 26.09. 3:00 1006 - 1,6
Sa, 26.09. 2:00 1007 - 0,8
Ortszeit Schneehöhe (cm)
Sa, 26.09. 2:00 -
Fr, 25.09. 20:00 -
Fr, 25.09. 14:00 -
Fr, 25.09. 8:00 -
Fr, 25.09. 2:00 -
Do, 24.09. 20:00 -
Do, 24.09. 14:00 -
Do, 24.09. 8:00 -
Ortszeit Schneehöhe (cm)
Sa, 26.09. 7:00 -
Sa, 26.09. 6:00 -
Sa, 26.09. 5:00 -
Sa, 26.09. 4:00 -
Sa, 26.09. 3:00 -
Sa, 26.09. 2:00 -
Link zu dieser Seite / Seite empfehlen

Das Wetter in ...